Weather in Ust-Egita

Russia / Republic of Buryatia     52°19′57″N   110°36′37″E
temp.,
°C
wind,
m/s
gust,
m/s
humid.,
%
clouds,
%
prec.,
mm/h
press.,
hPa
HPBL,
m
22 october, fri
fri2223:00−2sse11800 0.0 102810
02:00−2sse11820 0.0 102810
05:00−3sse11830 0.0 102710
08:00−3s11800 0.0 102710
11:00+4sw23500 0.0 1024383
14:00+8wsw35350 0.0 1021784
17:00+4w11510 0.0 102110
20:000wsw22610 0.0 102210
23 october, sat
sat2323:00−1sw22670 0.0 102310
02:00−2sw22730 0.0 102310
05:00−3sw11760 0.0 102410
08:00−2sw11730 0.0 102410
11:00+4wsw23480 0.0 1023443
14:00+7w34405 0.0 1021656
17:00+3wsw22555 0.0 102111
20:000wsw226947 0.0 102312
24 october, sun
sun2423:00−2wsw22768 0.0 102416
02:00−3sw22838 0.0 102316
05:00−3wsw228683 0.0 102321
08:00−3sw2289100 0.0 102335
11:00+2wsw356680 0.0 1021434
14:00+5w45544 0.0 1018709
17:00+3wsw35692 0.0 101876
20:00−1w3586100 0.0 102057
25 october, mon
mon2523:00−2wsw22885 0.0 102018
02:00−2wsw33905 0.0 102132
05:00−3wsw229298 0.0 102128
08:00−2wsw2391100 0.0 102145
11:00+3w476086 0.0 1019386
14:00+5w8115871 0.1 10181469
17:00+2wnw586652 0.1 1020188
20:00−2wsw35855 0.1 102368
26 october, tue
tue2623:00−3w3791100 0.0 1024139
02:00−2w41083100 0.0 1023257
05:00−2wsw2586100 0.0 1023139
08:00−3wsw25886 0.0 1022161
11:00+4wsw61157100 0.0 1018650
14:00+6w71251100 0.0 10151038
17:00+4wnw6127141 0.0 1015504
20:000w33845 0.1 101830